SCP
0 0 0 0 0 0 0 0 0 0 0 0 0 0 0 0 0 0 0 0 0 0 0 0 0 0 0 0 0 0 0 0 0 0 0 0 0 0 0 0 0 0 0
0 0 0 0 0 0 0 0 0 0 0 0 0 0 0 0 0 0 0 0 0 0 0 0 0 0 0 0 0 0 0 0 0 0 0 0 0 0 0 0 0 0 0
0 0 0 0 0 0 0 0 0 0 0 0 0 0 0 0 0 0 0 0 0 0 0 0 0 0 0 0 0 0 0 0 0 0 0 0 0 0 0 0 0 0 0
0 0 0 0 0 0 0 0 0 0 0 0 0 0 0 0 0 0 0 0 0 0 0 0 0 0 0 0 0 0 0 0 0 0 0 0 0 0 0 0 0 0 0
0 0 0 0 0 0 0 0 0 0 0 0 0 0 0 0 0 0 0 0 0 0 0 0 0 0 0 0 0 0 0 0 0 0 0 0 0 0 0 0 0 0 0
-0 0 -0 0 0 0 0 0 0 0 0 0 0 0 0 0 0 0 0 0 0 0 0 0 0 0 0 0 0 0 0 0 0 0 0 0 0 0 0 0 0 0 0
0 0 0 0 0 0 0 0 0 0 0 0 0 0 0 0 0 0 0 0 0 0 0 0 0 0 0 0 0 0 0 0 0 0 0 0 0 0 0 0 0 0 0
-0 -0 0 -0 -0 0 0 0 0 0 0 0 0 0 0 0 0 0 0 0 0 0 0 0 0 0 0 0 0 0 0 0 0 0 0 0 0 0 0 0 0 0 0
-0 0 0 0 0 0 0 0 0 0 0 0 0 0 0 0 0 0 0 0 0 0 0 0 0 0 0 0 0 0 0 0 0 0 0 0 0 0 0 0 0 0 0
0 -0 0 0 0 0 0 0 0 0 0 0 0 0 0 0 0 0 0 0 0 0 0 0 0 0 0 0 0 0 0 0 0 0 0 0 0 0 0 0 0 0 0
0 0 0 0 0 0 0 0 0 0 0 0 0 0 0 0 0 0 0 0 0 0 0 0 0 0 0 0 0 0 0 0 0 0 0 0 0 0 0 0 0 0 0
0 0 0 0 0 0 0 0 0 0 0 0 0 0 0 0 0 0 0 0 0 0 0 0 0 0 0 0 0 0 0 0 0 0 0 0 0 0 0 0 0 0 0
0 0 0 0 0 0 0 0 0 0 0 0 0 0 0 0 0 0 0 0 0 0 0 0 0 0 0 0 0 0 0 0 0 0 0 0 0 0 0 0 0 0 0
0 0 0 0 0 0 0 0 0 0 0 0 0 0 0 0 0 0 0 0 0 0 0 0 0 0 0 0 0 0 0 0 0 0 0 0 0 0 0 0 0 0 0
0 0 0 0 0 0 0 0 0 0 0 -0 -0 -0 -0 -0 -0 -0 0 0 0 0 0 0 0 0 0 0 0 0 0 0 0 0 0 0 0 0 0 0 0 0 0
0 0 0 0 0 0 0 0 -0 0 -0 -0 0 -0 -0 -0 -0 0 0 0 0 0 0 0 0 0 0 0 0 0 0 0 0 0 0 0 0 0 0 0 0 0 0
0 0 -0 -0 -0 -0 -0 -0 -0 0 -0 -0 -0 -0 -0 0 -0 -0 0 0 0 0 0 0 0 0 0 0 0 0 0 0 0 0 0 0 0 0 0 0 0 0 0
0 0 0 -0 -0 -0 -0 -0 -0 -0 0 0 -0 -0 -0 -0 -0 0 0 0 0 0 0 0 0 0 0 0 0 0 0 0 0 0 0 0 0 0 0 0 0 0 0
0 0 0 0 0 0 0 0 0 0 0 0 0 -0 -0 -0 -0 0 0 0 0 0 0 0 0 0 0 0 0 0 0 0 0 0 0 0 0 0 0 0 0 0 0
0 0 0 0 0 0 0 0 0 0 0 0 0 0 0 0 0 0 0 0 0 0 0 0 0 0 0 0 0 0 0 0 0 0 0 0 0 0 0 0 0 0 0
0 0 0 0 0 0 0 0 0 0 0 0 0 0 0 0 0 0 0 0 0 0 0 0 0 0 0 0 0 0 0 0 0 0 0 0 0 0 0 0 0 0 0
0 0 0 0 0 0 0 0 0 0 0 0 0 0 0 0 0 0 0 0 0 0 0 0 0 0 0 0 0 0 0 0 0 0 0 0 0 0 0 0 0 0 0
0 0 0 0 0 0 0 0 0 0 0 0 0 0 0 0 0 0 0 0 0 0 0 0 0 0 0 0 0 0 0 0 0 0 0 0 0 0 0 0 0 0 0
0 0 0 0 0 0 0 0 0 0 0 0 0 0 0 0 0 0 0 0 0 0 0 0 0 0 0 0 0 0 0 0 0 0 0 0 0 0 0 0 0 0 0
0 0 0 0 0 0 0 0 0 0 0 0 0 0 0 0 0 0 0 0 0 0 0 0 0 0 0 0 0 0 0 0 0 0 0 0 0 0 0 0 0 0 0
0 0 0 0 0 0 0 0 0 0 0 0 0 0 0 0 0 0 0 0 0 0 0 0 0 0 0 0 0 0 0 0 0 0 0 0 0 0 0 0 0 0 0
Wind_Speed_500mb
87 82 81 81 83 83 88 89 83 79 87 78 80 76 74 102 106 127 122 124 125 105 122 89 90 90 85 80 66 55 50 50 49 42 51 38 41 43 41 37 33 32 35
81 80 83 80 83 83 83 86 82 83 80 81 91 86 83 98 103 99 133 126 132 111 100 91 98 88 75 74 62 54 56 50 38 38 38 42 47 43 39 37 35 35 36
71 71 74 76 77 79 82 82 83 78 76 76 89 96 98 93 90 79 113 107 115 114 101 110 90 85 78 69 61 58 57 49 43 41 43 49 47 44 42 37 37 36 39
66 68 69 69 72 77 77 78 76 69 78 77 84 87 85 90 105 91 97 99 106 108 107 98 87 89 76 70 65 66 54 48 44 43 45 47 45 41 41 40 37 35 39
56 53 54 54 51 57 62 67 70 63 80 79 80 81 81 82 79 90 95 119 108 107 93 88 87 76 66 60 67 72 57 50 46 50 50 46 44 44 40 31 34 34 39
46 50 49 43 37 52 58 58 62 67 80 83 85 83 80 89 70 69 93 115 101 93 95 85 73 65 62 68 56 47 44 48 50 54 48 44 39 35 33 31 33 33 42
38 36 24 20 9 41 60 65 60 73 81 75 81 76 85 84 66 68 88 97 106 96 89 80 72 65 59 54 48 48 44 46 43 38 38 35 33 30 29 30 30 34 39
29 24 11 8 22 42 54 62 62 74 78 71 72 71 72 74 60 60 71 76 80 83 75 69 65 57 56 51 53 44 51 49 46 41 37 33 34 31 29 32 33 36 42
20 13 3 17 33 50 57 63 69 66 67 66 66 61 66 59 56 70 65 71 69 66 61 57 50 49 49 53 45 51 45 44 44 40 36 35 33 33 35 35 36 37 46
21 15 7 13 34 47 58 66 66 60 60 60 58 54 48 46 45 42 56 69 68 63 55 49 46 43 48 44 48 43 43 39 36 36 37 36 36 39 40 38 39 44 51
22 17 21 20 29 39 47 52 54 59 61 57 57 47 45 51 54 59 61 65 62 56 56 51 52 49 44 42 41 38 34 32 35 39 40 38 40 42 43 46 47 52 58
25 29 32 34 38 48 50 51 56 56 59 59 60 69 63 60 60 55 51 50 51 48 51 48 42 39 38 38 34 32 35 37 39 40 42 43 45 46 46 50 55 60 65
40 43 44 42 45 52 62 65 66 62 58 65 74 76 66 59 56 49 50 48 42 36 32 31 33 33 32 33 33 32 35 39 39 43 47 50 51 53 56 60 60 64 69
46 51 52 53 52 52 54 57 64 74 80 77 76 74 65 59 56 53 49 44 40 37 34 32 28 28 29 28 31 34 35 37 42 49 53 54 59 63 67 68 71 72 77
53 55 59 62 64 68 72 72 73 73 72 77 75 71 66 58 48 39 34 33 30 26 23 24 24 24 25 26 28 31 37 43 47 49 53 58 63 67 69 68 68 67 69
67 66 67 70 72 74 75 75 68 62 56 53 49 44 44 41 39 35 32 29 26 24 21 20 20 20 22 27 33 37 39 40 41 46 51 54 58 59 60 59 61 65 70
52 54 56 58 59 60 60 61 63 55 52 49 43 40 37 37 35 30 26 22 19 16 13 13 17 23 27 28 28 29 32 35 40 46 51 51 48 50 55 61 67 70 73
31 35 37 40 41 42 42 43 45 47 48 44 39 33 30 28 25 22 18 16 15 14 17 22 25 24 23 25 30 35 40 44 45 43 43 45 49 55 61 66 65 67 72
23 27 29 31 33 33 33 34 33 32 30 29 27 24 21 18 16 15 15 16 18 21 22 22 21 23 27 33 38 39 40 43 47 49 51 55 59 65 68 69 70 71 73
20 21 23 23 24 24 24 23 23 22 21 19 18 16 15 14 14 14 15 16 18 18 18 21 25 29 31 33 35 37 39 41 44 46 48 51 53 55 58 61 61 63 61
17 17 17 18 19 19 18 17 17 16 15 16 15 13 10 11 13 13 12 12 14 16 18 20 21 24 27 30 33 36 38 40 43 44 45 45 47 48 48 49 51 51 52
20 19 18 17 16 15 15 14 14 13 12 11 11 11 10 10 9 9 9 10 10 11 13 17 20 22 25 28 31 34 37 39 40 40 39 39 40 39 41 42 43 44 45
19 18 18 16 15 14 14 14 13 13 12 11 9 7 6 6 6 4 2 3 6 9 13 18 22 24 26 29 32 34 35 35 34 34 35 37 38 39 40 41 42 43 42
20 19 19 18 18 17 16 15 15 12 11 11 10 10 10 7 4 1 3 6 10 13 15 18 20 23 26 28 29 29 29 30 32 35 37 37 38 38 39 39 39 39 39
22 20 18 17 16 16 17 17 16 16 15 12 10 7 5 3 2 2 5 7 9 11 14 17 19 21 24 25 27 28 30 31 33 32 34 36 36 36 37 38 39 39 37
21 19 18 18 17 16 15 15 16 15 13 11 9 8 5 3 3 4 4 4 7 11 14 18 21 23 25 28 30 32 31 31 29 27 31 33 34 36 40 44 47 51 52
Wind_Direction_500mb
284 276 270 265 259 253 253 249 241 240 235 225 223 226 226 219 221 219 225 216 220 212 223 221 222 221 214 218 217 212 223 214 210 214 221 217 238 219 227 237 249 264 273
288 283 277 271 265 261 251 248 244 239 233 232 225 224 224 219 219 216 217 215 218 217 212 215 221 213 217 219 220 224 201 202 216 220 242 230 216 220 229 240 253 263 275
292 286 281 273 264 257 251 243 237 233 222 222 214 219 218 214 212 217 221 222 207 217 216 215 212 217 210 212 212 201 204 216 228 240 222 211 215 221 231 243 254 266 275
302 295 286 275 264 255 248 240 230 229 213 216 209 210 214 217 220 227 228 226 210 212 219 211 216 211 216 209 202 197 216 221 225 205 210 215 219 225 235 244 257 270 275
309 305 298 289 267 255 241 226 220 218 208 207 204 209 213 217 213 215 226 216 214 216 206 208 212 206 202 205 196 210 224 224 189 205 210 216 222 230 241 251 263 273 281
316 312 305 299 270 234 224 202 204 202 203 203 206 203 209 209 207 227 224 220 209 207 206 199 196 191 192 196 223 221 231 182 199 209 214 225 233 239 245 257 268 281 288
328 316 304 317 255 189 185 184 191 192 202 196 198 200 202 199 209 225 212 205 210 203 196 192 186 189 198 211 200 189 185 202 213 225 231 238 241 245 251 267 279 283 293
332 321 307 195 169 171 172 176 184 188 184 187 191 200 199 199 201 215 211 211 198 189 186 185 187 191 199 194 185 185 201 205 214 223 232 238 245 250 263 271 279 287 289
8 360 358 163 160 166 170 172 183 184 177 182 186 186 188 186 209 215 215 194 179 171 173 179 187 190 189 183 187 206 208 215 222 229 236 242 251 262 268 275 284 286 288
33 45 81 152 165 165 171 173 174 175 173 173 174 181 183 189 194 192 181 170 167 165 171 179 176 183 176 190 206 211 219 225 234 241 246 250 256 263 275 283 283 285 288
46 79 112 134 145 152 154 157 160 157 153 154 155 156 164 167 165 166 164 163 165 167 166 172 171 174 191 202 211 220 231 236 242 244 249 257 263 273 283 288 287 284 284
73 86 100 114 126 132 141 139 141 144 142 142 146 149 149 148 153 153 153 154 153 160 162 165 176 188 199 209 219 228 239 246 247 253 259 263 271 279 284 283 281 280 280
82 90 97 106 115 122 126 133 136 137 138 145 143 134 136 137 136 137 139 137 141 152 159 169 183 195 206 219 230 239 246 252 261 263 266 272 277 281 281 283 283 282 281
87 95 102 110 114 118 122 126 133 138 137 131 128 128 132 135 137 142 146 150 154 161 169 178 190 204 217 228 238 247 257 265 269 271 275 282 286 289 290 291 291 291 289
89 93 98 104 110 115 114 114 113 114 118 123 127 131 137 140 141 141 142 145 152 161 175 189 202 215 228 240 249 257 263 265 271 280 286 289 290 293 295 295 293 293 290
90 91 95 100 104 108 111 112 110 109 111 113 114 119 125 130 134 140 143 149 162 175 186 200 213 227 241 250 256 260 266 277 286 290 293 295 298 299 302 304 302 300 298
92 99 103 106 109 113 115 116 117 118 121 122 124 127 130 135 140 145 153 161 167 176 196 218 234 243 250 259 271 284 295 299 298 301 300 301 302 303 301 300 300 298 296
100 103 106 107 109 111 112 116 120 127 130 130 131 132 133 138 144 152 161 177 197 213 233 244 249 260 275 285 290 295 298 299 298 297 297 298 298 297 297 297 296 296 300
117 117 116 117 117 119 123 124 126 129 131 133 138 143 148 158 171 188 205 224 239 243 247 258 273 285 294 298 300 301 301 302 301 300 298 297 297 295 292 290 290 289 289
144 140 137 136 135 136 137 140 142 146 149 155 163 175 185 193 211 227 232 234 241 258 271 281 289 295 299 303 305 305 304 301 298 299 300 298 296 294 295 295 295 295 295
169 167 167 167 166 165 166 167 166 166 169 173 180 188 200 216 226 232 247 262 271 275 283 290 300 306 307 305 306 306 305 308 308 306 304 303 303 303 302 303 304 305 304
190 184 182 180 178 176 177 176 179 181 181 182 185 191 203 213 226 244 256 264 278 296 308 308 307 306 309 309 307 307 310 309 309 311 313 314 314 316 317 317 314 312 309
199 198 197 195 192 192 191 186 188 188 187 184 185 185 181 179 185 184 210 285 303 311 316 319 317 313 310 311 313 315 316 318 321 325 328 331 330 328 326 324 321 319 319
194 195 195 193 190 188 186 184 180 176 173 171 162 150 141 137 126 56 350 339 329 318 309 306 308 311 313 315 318 323 331 335 335 337 337 337 337 335 333 332 328 324 324
197 197 193 195 192 187 182 174 166 159 150 141 136 136 128 114 90 339 316 308 305 308 310 311 314 319 324 331 336 339 339 340 342 342 343 345 342 340 339 338 336 338 337
196 193 192 190 183 177 172 164 153 148 151 153 153 153 153 177 216 237 265 291 304 315 325 330 334 338 341 342 343 343 341 337 337 341 340 334 331 328 325 327 322 315 314
Wind_Speed_850mb
87 82 81 81 83 83 88 89 83 79 87 78 80 76 74 102 106 127 122 124 125 105 122 89 90 90 85 80 66 55 50 50 49 42 51 38 41 43 41 37 33 32 35
81 80 83 80 83 83 83 86 82 83 80 81 91 86 83 98 103 99 133 126 132 111 100 91 98 88 75 74 62 54 56 50 38 38 38 42 47 43 39 37 35 35 36
71 71 74 76 77 79 82 82 83 78 76 76 89 96 98 93 90 79 113 107 115 114 101 110 90 85 78 69 61 58 57 49 43 41 43 49 47 44 42 37 37 36 39
66 68 69 69 72 77 77 78 76 69 78 77 84 87 85 90 105 91 97 99 106 108 107 98 87 89 76 70 65 66 54 48 44 43 45 47 45 41 41 40 37 35 39
56 53 54 54 51 57 62 67 70 63 80 79 80 81 81 82 79 90 95 119 108 107 93 88 87 76 66 60 67 72 57 50 46 50 50 46 44 44 40 31 34 34 39
46 50 49 43 37 52 58 58 62 67 80 83 85 83 80 89 70 69 93 115 101 93 95 85 73 65 62 68 56 47 44 48 50 54 48 44 39 35 33 31 33 33 42
38 36 24 20 9 41 60 65 60 73 81 75 81 76 85 84 66 68 88 97 106 96 89 80 72 65 59 54 48 48 44 46 43 38 38 35 33 30 29 30 30 34 39
29 24 11 8 22 42 54 62 62 74 78 71 72 71 72 74 60 60 71 76 80 83 75 69 65 57 56 51 53 44 51 49 46 41 37 33 34 31 29 32 33 36 42
20 13 3 17 33 50 57 63 69 66 67 66 66 61 66 59 56 70 65 71 69 66 61 57 50 49 49 53 45 51 45 44 44 40 36 35 33 33 35 35 36 37 46
21 15 7 13 34 47 58 66 66 60 60 60 58 54 48 46 45 42 56 69 68 63 55 49 46 43 48 44 48 43 43 39 36 36 37 36 36 39 40 38 39 44 51
22 17 21 20 29 39 47 52 54 59 61 57 57 47 45 51 54 59 61 65 62 56 56 51 52 49 44 42 41 38 34 32 35 39 40 38 40 42 43 46 47 52 58
25 29 32 34 38 48 50 51 56 56 59 59 60 69 63 60 60 55 51 50 51 48 51 48 42 39 38 38 34 32 35 37 39 40 42 43 45 46 46 50 55 60 65
40 43 44 42 45 52 62 65 66 62 58 65 74 76 66 59 56 49 50 48 42 36 32 31 33 33 32 33 33 32 35 39 39 43 47 50 51 53 56 60 60 64 69
46 51 52 53 52 52 54 57 64 74 80 77 76 74 65 59 56 53 49 44 40 37 34 32 28 28 29 28 31 34 35 37 42 49 53 54 59 63 67 68 71 72 77
53 55 59 62 64 68 72 72 73 73 72 77 75 71 66 58 48 39 34 33 30 26 23 24 24 24 25 26 28 31 37 43 47 49 53 58 63 67 69 68 68 67 69
67 66 67 70 72 74 75 75 68 62 56 53 49 44 44 41 39 35 32 29 26 24 21 20 20 20 22 27 33 37 39 40 41 46 51 54 58 59 60 59 61 65 70
52 54 56 58 59 60 60 61 63 55 52 49 43 40 37 37 35 30 26 22 19 16 13 13 17 23 27 28 28 29 32 35 40 46 51 51 48 50 55 61 67 70 73
31 35 37 40 41 42 42 43 45 47 48 44 39 33 30 28 25 22 18 16 15 14 17 22 25 24 23 25 30 35 40 44 45 43 43 45 49 55 61 66 65 67 72
23 27 29 31 33 33 33 34 33 32 30 29 27 24 21 18 16 15 15 16 18 21 22 22 21 23 27 33 38 39 40 43 47 49 51 55 59 65 68 69 70 71 73
20 21 23 23 24 24 24 23 23 22 21 19 18 16 15 14 14 14 15 16 18 18 18 21 25 29 31 33 35 37 39 41 44 46 48 51 53 55 58 61 61 63 61
17 17 17 18 19 19 18 17 17 16 15 16 15 13 10 11 13 13 12 12 14 16 18 20 21 24 27 30 33 36 38 40 43 44 45 45 47 48 48 49 51 51 52
20 19 18 17 16 15 15 14 14 13 12 11 11 11 10 10 9 9 9 10 10 11 13 17 20 22 25 28 31 34 37 39 40 40 39 39 40 39 41 42 43 44 45
19 18 18 16 15 14 14 14 13 13 12 11 9 7 6 6 6 4 2 3 6 9 13 18 22 24 26 29 32 34 35 35 34 34 35 37 38 39 40 41 42 43 42
20 19 19 18 18 17 16 15 15 12 11 11 10 10 10 7 4 1 3 6 10 13 15 18 20 23 26 28 29 29 29 30 32 35 37 37 38 38 39 39 39 39 39
22 20 18 17 16 16 17 17 16 16 15 12 10 7 5 3 2 2 5 7 9 11 14 17 19 21 24 25 27 28 30 31 33 32 34 36 36 36 37 38 39 39 37
21 19 18 18 17 16 15 15 16 15 13 11 9 8 5 3 3 4 4 4 7 11 14 18 21 23 25 28 30 32 31 31 29 27 31 33 34 36 40 44 47 51 52
Wind_Direction_850mb
284 276 270 265 259 253 253 249 241 240 235 225 223 226 226 219 221 219 225 216 220 212 223 221 222 221 214 218 217 212 223 214 210 214 221 217 238 219 227 237 249 264 273
288 283 277 271 265 261 251 248 244 239 233 232 225 224 224 219 219 216 217 215 218 217 212 215 221 213 217 219 220 224 201 202 216 220 242 230 216 220 229 240 253 263 275
292 286 281 273 264 257 251 243 237 233 222 222 214 219 218 214 212 217 221 222 207 217 216 215 212 217 210 212 212 201 204 216 228 240 222 211 215 221 231 243 254 266 275
302 295 286 275 264 255 248 240 230 229 213 216 209 210 214 217 220 227 228 226 210 212 219 211 216 211 216 209 202 197 216 221 225 205 210 215 219 225 235 244 257 270 275
309 305 298 289 267 255 241 226 220 218 208 207 204 209 213 217 213 215 226 216 214 216 206 208 212 206 202 205 196 210 224 224 189 205 210 216 222 230 241 251 263 273 281
316 312 305 299 270 234 224 202 204 202 203 203 206 203 209 209 207 227 224 220 209 207 206 199 196 191 192 196 223 221 231 182 199 209 214 225 233 239 245 257 268 281 288
328 316 304 317 255 189 185 184 191 192 202 196 198 200 202 199 209 225 212 205 210 203 196 192 186 189 198 211 200 189 185 202 213 225 231 238 241 245 251 267 279 283 293
332 321 307 195 169 171 172 176 184 188 184 187 191 200 199 199 201 215 211 211 198 189 186 185 187 191 199 194 185 185 201 205 214 223 232 238 245 250 263 271 279 287 289
8 360 358 163 160 166 170 172 183 184 177 182 186 186 188 186 209 215 215 194 179 171 173 179 187 190 189 183 187 206 208 215 222 229 236 242 251 262 268 275 284 286 288
33 45 81 152 165 165 171 173 174 175 173 173 174 181 183 189 194 192 181 170 167 165 171 179 176 183 176 190 206 211 219 225 234 241 246 250 256 263 275 283 283 285 288
46 79 112 134 145 152 154 157 160 157 153 154 155 156 164 167 165 166 164 163 165 167 166 172 171 174 191 202 211 220 231 236 242 244 249 257 263 273 283 288 287 284 284
73 86 100 114 126 132 141 139 141 144 142 142 146 149 149 148 153 153 153 154 153 160 162 165 176 188 199 209 219 228 239 246 247 253 259 263 271 279 284 283 281 280 280
82 90 97 106 115 122 126 133 136 137 138 145 143 134 136 137 136 137 139 137 141 152 159 169 183 195 206 219 230 239 246 252 261 263 266 272 277 281 281 283 283 282 281
87 95 102 110 114 118 122 126 133 138 137 131 128 128 132 135 137 142 146 150 154 161 169 178 190 204 217 228 238 247 257 265 269 271 275 282 286 289 290 291 291 291 289
89 93 98 104 110 115 114 114 113 114 118 123 127 131 137 140 141 141 142 145 152 161 175 189 202 215 228 240 249 257 263 265 271 280 286 289 290 293 295 295 293 293 290
90 91 95 100 104 108 111 112 110 109 111 113 114 119 125 130 134 140 143 149 162 175 186 200 213 227 241 250 256 260 266 277 286 290 293 295 298 299 302 304 302 300 298
92 99 103 106 109 113 115 116 117 118 121 122 124 127 130 135 140 145 153 161 167 176 196 218 234 243 250 259 271 284 295 299 298 301 300 301 302 303 301 300 300 298 296
100 103 106 107 109 111 112 116 120 127 130 130 131 132 133 138 144 152 161 177 197 213 233 244 249 260 275 285 290 295 298 299 298 297 297 298 298 297 297 297 296 296 300
117 117 116 117 117 119 123 124 126 129 131 133 138 143 148 158 171 188 205 224 239 243 247 258 273 285 294 298 300 301 301 302 301 300 298 297 297 295 292 290 290 289 289
144 140 137 136 135 136 137 140 142 146 149 155 163 175 185 193 211 227 232 234 241 258 271 281 289 295 299 303 305 305 304 301 298 299 300 298 296 294 295 295 295 295 295
169 167 167 167 166 165 166 167 166 166 169 173 180 188 200 216 226 232 247 262 271 275 283 290 300 306 307 305 306 306 305 308 308 306 304 303 303 303 302 303 304 305 304
190 184 182 180 178 176 177 176 179 181 181 182 185 191 203 213 226 244 256 264 278 296 308 308 307 306 309 309 307 307 310 309 309 311 313 314 314 316 317 317 314 312 309
199 198 197 195 192 192 191 186 188 188 187 184 185 185 181 179 185 184 210 285 303 311 316 319 317 313 310 311 313 315 316 318 321 325 328 331 330 328 326 324 321 319 319
194 195 195 193 190 188 186 184 180 176 173 171 162 150 141 137 126 56 350 339 329 318 309 306 308 311 313 315 318 323 331 335 335 337 337 337 337 335 333 332 328 324 324
197 197 193 195 192 187 182 174 166 159 150 141 136 136 128 114 90 339 316 308 305 308 310 311 314 319 324 331 336 339 339 340 342 342 343 345 342 340 339 338 336 338 337
196 193 192 190 183 177 172 164 153 148 151 153 153 153 153 177 216 237 265 291 304 315 325 330 334 338 341 342 343 343 341 337 337 341 340 334 331 328 325 327 322 315 314